{"data":{"norad_id":55950,"epoch":"2026-05-25T03:32:26.039904Z","epoch_age_seconds":52346,"freshness":"FRESH","line1":"1 55950U 23037AN  26145.14752361  .00000456  00000+0  46001-4 0  9995","line2":"2 55950  70.0002  71.7685 0002947 269.6769  90.4053 14.98330624175921","mean_motion":14.98330624,"eccentricity":0.0002947,"inclination_deg":70.0002,"raan_deg":71.7685,"arg_perigee_deg":269.6769,"mean_anomaly_deg":90.4053,"bstar":4.6001e-5,"rev_number":17592,"period_min":96.106959100637,"perigee_km":570.00574000027,"apogee_km":574.10218255285,"semimajor_km":6950.1909612766,"source":"CELESTRAK","updated_at":"2026-05-25T13:38:17.918096Z"}}